Theta_e
326 327 329 339 340 343 345 345 345 346 346 346 346 347 347 347 347 347 347 347 347 346 346 347 346 346 347 347 346 347 346 347 347 346 346 347 347 347 347 347 348 347 347 348 348 348 348 349 348 351 351 350 350 350 350 349 350 348 348 348 348 348 347 347 347 347 347 347 348 349 349 349 350 350 351 354 354 354 354 353 354 350 347 350 353
324 326 328 332 339 340 342 344 344 344 345 345 345 345 346 346 346 346 346 346 346 347 346 347 346 348 347 346 347 346 347 347 347 347 347 346 345 346 347 347 347 347 348 347 348 347 348 348 348 349 350 350 350 350 349 349 349 349 348 349 349 349 347 347 347 347 347 347 347 348 347 348 349 349 350 354 354 354 353 353 352 348 345 353 353
326 327 328 331 337 338 339 341 342 342 343 343 343 344 344 344 344 345 345 345 346 346 346 346 346 347 346 346 346 347 347 346 346 345 344 343 343 343 344 345 345 346 347 347 349 347 347 347 348 349 348 347 347 348 349 348 348 348 348 349 349 348 348 347 347 346 346 346 346 346 344 344 345 347 353 354 355 355 353 352 352 351 349 353 354
326 326 327 331 337 337 337 338 338 340 340 340 341 341 343 343 343 343 344 344 345 345 345 345 345 345 345 345 345 345 344 344 344 344 342 341 341 340 341 342 342 343 344 346 347 348 348 348 348 347 345 344 344 345 345 344 345 346 347 348 348 348 347 345 343 342 342 343 345 344 341 339 339 347 354 354 354 354 353 353 352 352 353 353 354
325 325 325 325 326 335 336 336 337 337 338 338 338 339 340 341 341 341 341 341 341 342 342 343 343 343 343 342 342 342 342 341 341 341 340 339 339 338 338 339 340 341 342 343 344 344 344 345 345 344 342 341 340 341 340 341 341 342 344 347 347 345 344 343 341 340 340 342 343 342 339 339 338 351 346 350 354 353 353 353 353 353 352 353 352
324 324 324 323 323 328 335 335 336 336 335 335 336 337 338 339 339 339 339 339 339 339 340 340 340 340 340 340 340 340 340 340 339 339 338 337 336 336 336 337 337 338 339 340 341 341 340 341 342 341 339 337 337 337 337 338 338 339 340 342 342 342 341 339 338 337 339 340 340 338 338 337 337 341 347 347 352 353 352 351 348 350 350 351 351
323 322 323 323 323 327 334 334 335 334 334 335 334 336 336 337 337 337 337 337 337 337 337 337 338 337 337 337 337 336 336 336 336 336 335 335 334 333 333 334 334 335 337 337 338 338 338 338 338 337 336 335 335 334 334 334 335 336 337 338 338 338 338 335 333 335 338 337 335 336 336 337 338 339 349 349 347 350 350 349 348 348 348 349 350
321 322 322 322 323 330 333 332 333 333 333 334 334 334 335 335 335 335 335 335 335 335 335 335 335 335 335 334 333 333 333 333 333 333 332 332 331 330 330 330 332 333 333 334 334 335 335 334 334 334 333 332 331 331 330 330 331 332 333 334 335 335 334 330 331 334 335 333 334 335 335 336 337 339 347 349 348 351 350 349 347 348 349 349 349
320 321 321 320 323 332 332 331 331 332 332 333 333 333 334 334 334 334 334 333 333 333 333 333 332 332 331 331 330 330 329 330 330 330 329 329 329 329 328 328 328 329 330 331 331 331 331 331 331 330 329 328 327 327 327 326 327 327 327 328 329 330 328 324 328 332 330 331 333 334 335 337 338 337 345 348 348 348 349 348 348 348 348 348 348
318 318 319 319 321 331 331 330 330 331 332 331 331 332 332 332 332 332 331 331 331 330 330 330 329 329 329 328 328 328 328 328 328 328 328 328 328 327 327 327 326 326 327 328 328 329 329 328 328 327 327 326 326 326 326 325 326 325 325 325 325 324 323 322 323 326 325 327 329 332 335 342 338 336 343 347 348 348 348 347 345 345 347 348 348
316 317 316 317 320 329 329 329 329 330 331 331 330 330 330 329 329 329 329 329 328 328 328 327 328 328 327 327 326 326 326 326 327 326 325 325 325 325 325 325 325 325 325 326 327 327 327 327 326 326 326 325 325 324 324 324 325 325 324 325 324 323 323 321 318 316 317 321 325 329 334 340 336 336 346 347 347 348 348 347 345 346 349 348 349
314 315 315 316 326 328 328 328 328 329 328 328 328 328 328 327 327 327 327 326 326 326 326 327 327 327 326 325 325 325 325 325 326 325 324 325 325 324 325 325 325 324 324 325 325 326 326 325 325 324 324 323 323 323 322 322 323 323 323 323 323 323 322 321 313 309 311 317 320 325 327 331 334 337 346 347 346 346 348 349 347 347 347 348 348
313 313 313 313 317 326 326 327 327 327 327 327 327 327 327 327 326 325 325 326 326 326 325 326 325 325 324 323 323 324 324 324 324 325 324 324 324 323 323 323 323 322 322 322 322 323 323 323 323 322 323 322 322 322 321 321 322 322 321 321 321 321 320 319 312 309 308 311 315 318 322 325 331 340 343 346 346 346 346 346 346 346 346 347 347
311 311 311 313 314 324 325 326 326 326 326 326 326 325 326 326 325 325 325 324 324 323 323 323 324 324 323 323 322 321 322 322 322 322 322 322 321 321 321 321 321 321 320 320 320 321 321 321 321 321 321 321 320 321 321 321 321 320 319 320 319 319 318 316 315 308 307 306 310 315 318 325 329 336 339 340 344 346 346 346 345 346 346 346 347
309 309 310 310 312 314 323 325 325 325 325 325 324 324 325 324 324 324 323 322 322 322 321 322 322 322 322 321 320 319 319 319 320 319 320 320 320 320 319 319 320 320 319 319 320 320 320 320 320 320 320 320 319 320 319 320 319 318 318 317 317 317 317 312 311 308 307 309 308 312 315 320 332 340 341 340 341 345 346 345 346 345 345 345 346
308 308 309 308 310 311 313 321 323 323 323 323 323 323 323 323 323 322 321 321 321 321 320 320 320 319 319 319 318 318 316 316 316 317 317 318 318 318 318 318 319 319 318 318 319 319 319 319 319 318 318 318 318 318 318 319 317 316 316 315 315 316 317 316 309 308 307 307 311 316 317 322 326 334 340 343 345 346 346 345 345 345 345 345 345
308 308 307 307 307 308 310 312 317 320 320 320 320 320 320 321 322 322 321 320 319 319 318 318 317 316 316 316 315 315 314 313 313 313 314 315 317 316 316 316 317 317 317 316 316 317 317 317 316 316 317 317 316 316 317 316 315 315 314 313 314 316 316 316 306 305 305 311 311 312 316 318 322 327 332 335 338 340 341 342 342 342 342 344 345
305 305 306 306 305 306 308 309 310 310 311 315 318 318 319 319 319 319 319 318 318 317 316 315 315 313 312 312 312 312 312 312 311 310 310 311 312 313 313 313 314 314 314 314 313 314 314 314 314 315 315 314 313 314 314 313 314 313 312 312 313 315 314 310 301 302 304 310 305 310 307 320 322 324 328 330 331 333 334 335 337 338 340 341 342
301 303 304 304 303 304 306 305 305 304 304 305 307 313 316 316 316 316 315 315 315 314 313 312 312 312 311 310 309 309 309 309 308 307 307 307 307 308 310 310 311 312 313 312 312 313 313 312 312 313 311 311 310 311 311 311 311 311 311 311 312 312 309 304 301 302 304 303 306 304 307 318 321 324 325 326 328 329 329 329 330 331 334 336 337
299 300 301 301 302 302 302 302 302 302 301 302 304 306 313 313 314 314 313 313 311 310 310 309 308 308 308 309 308 306 306 304 306 304 305 305 305 305 308 309 309 311 311 310 311 312 311 311 310 310 310 309 308 308 308 309 309 309 309 310 309 308 300 300 300 301 301 303 308 302 313 316 319 322 323 324 325 326 326 326 326 326 326 328 331
299 298 298 298 299 300 301 301 301 301 300 300 301 302 307 312 311 311 311 310 310 308 307 306 307 305 306 308 307 298 297 296 297 300 306 301 305 306 306 307 307 308 308 308 309 309 309 309 309 308 308 307 305 305 305 307 308 308 308 309 306 298 299 299 300 301 302 301 305 302 313 314 316 319 321 322 323 324 324 325 325 326 326 326 325
297 296 297 297 298 299 299 300 300 299 299 300 300 302 304 305 300 301 302 305 307 308 304 301 307 299 306 303 299 298 296 295 297 304 301 303 303 306 305 306 305 306 305 305 306 307 306 307 307 306 305 304 303 295 297 301 304 307 307 306 298 297 298 299 298 299 300 299 304 307 312 314 316 318 320 320 321 322 323 324 324 325 326 327 327
295 296 296 297 298 298 299 299 299 299 298 298 299 300 299 298 298 298 301 305 303 300 299 300 297 297 297 297 298 297 295 296 297 300 300 305 302 307 303 304 303 303 303 302 303 304 304 304 305 304 302 302 295 293 293 294 295 301 301 297 296 297 298 298 297 298 298 300 301 309 310 313 315 316 319 320 320 320 320 321 322 323 324 325 325
295 296 296 297 297 298 298 299 299 299 298 298 299 298 298 298 298 298 298 298 298 299 297 297 297 296 296 296 296 297 296 296 306 306 304 296 297 303 302 302 302 301 301 299 300 301 302 302 302 302 298 295 292 292 293 292 294 294 294 294 295 296 297 297 296 297 298 300 300 309 309 311 313 314 317 319 319 318 319 320 321 322 323 324 326
296 296 296 297 297 298 297 298 299 299 298 298 298 297 297 297 296 296 297 296 296 296 296 296 296 295 295 296 296 296 295 295 294 294 293 293 292 292 293 292 292 293 298 292 292 292 293 291 291 294 291 292 292 291 292 293 293 293 293 294 295 295 295 296 295 296 297 297 299 307 307 309 311 313 316 317 318 317 318 319 320 321 322 322 323
296 295 296 297 297 298 297 298 299 299 298 298 298 298 298 296 295 296 296 296 297 295 296 296 295 294 294 295 297 295 295 294 293 292 293 292 292 292 291 291 291 291 293 291 290 290 290 289 290 291 290 291 291 291 291 293 291 292 292 293 293 294 294 294 294 295 296 296 298 305 306 306 309 311 313 316 316 317 318 318 319 319 320 321 322
295 295 296 296 297 297 297 298 298 298 298 298 298 298 297 296 296 296 296 295 296 295 294 294 294 294 294 295 294 293 292 292 292 291 291 292 291 291 290 290 291 290 292 290 290 290 289 289 289 290 289 290 290 290 290 291 291 291 292 292 292 293 293 293 293 294 294 295 298 304 305 304 307 310 312 314 316 317 317 318 319 319 319 320 322
295 295 295 296 297 297 297 297 297 298 297 297 297 297 296 296 296 299 296 297 296 294 293 293 295 293 294 294 294 292 292 291 291 291 291 291 291 291 290 290 290 289 291 290 289 288 288 288 289 289 289 289 289 289 290 290 290 290 291 291 292 292 292 292 292 293 293 293 295 299 303 303 305 307 309 312 314 315 316 317 318 319 319 320 320
295 295 295 295 296 297 297 297 297 297 297 297 296 296 296 296 296 296 294 299 294 293 293 293 293 293 293 293 294 291 291 291 290 290 290 290 290 290 289 289 290 289 289 288 288 288 288 288 288 288 288 289 288 289 290 290 289 290 290 290 290 291 290 290 291 291 291 291 292 295 301 302 303 304 307 310 311 313 314 316 317 318 318 319 319
296 295 295 295 296 297 296 297 297 297 297 296 295 295 296 295 295 295 294 298 293 293 293 292 291 291 291 292 293 291 290 290 290 289 289 289 289 289 289 289 288 288 287 288 288 288 288 288 288 288 289 288 288 289 289 288 289 289 289 290 289 289 290 289 290 290 290 290 291 292 298 299 301 303 304 306 309 310 313 314 315 316 317 318 319
296 295 295 295 296 296 296 297 297 298 297 296 295 295 296 295 295 294 295 295 293 293 293 292 291 291 291 291 292 292 291 290 289 289 289 288 289 289 288 288 287 287 287 287 288 289 288 288 288 288 288 288 288 288 288 288 288 288 289 289 289 289 289 289 290 290 290 290 290 290 292 297 299 300 302 304 306 308 309 311 313 314 316 317 317
295 295 295 295 295 296 296 296 296 297 297 295 295 295 295 294 294 293 293 293 293 292 291 291 291 291 291 290 290 291 292 289 289 289 289 288 288 287 288 288 287 287 288 287 288 288 288 287 288 289 288 287 287 287 288 288 287 287 288 288 288 288 288 289 289 289 289 289 289 289 290 292 297 299 300 302 304 305 307 308 310 311 312 314 315
296 296 295 295 295 295 296 295 296 297 296 295 295 295 295 294 294 292 292 294 293 292 291 291 290 291 291 290 290 291 291 290 288 290 291 287 288 287 288 288 287 287 287 288 287 286 286 286 287 288 287 288 287 287 288 287 286 286 287 287 287 287 288 288 288 288 288 288 289 289 289 290 291 296 298 300 301 303 305 307 307 308 310 312 313
295 295 294 294 295 296 297 296 295 296 296 295 294 294 294 294 293 292 293 293 292 291 291 290 291 291 290 290 289 290 290 289 289 288 287 287 287 287 287 286 286 287 287 287 286 286 286 286 287 286 289 287 285 286 286 285 285 285 286 286 286 286 286 287 287 287 288 288 288 288 288 289 289 290 292 298 299 301 303 305 306 307 308 310 311
295 294 294 294 295 295 296 295 296 295 296 294 294 294 294 294 292 292 293 292 291 291 290 290 290 290 290 289 289 290 289 289 288 287 287 287 286 286 286 286 287 286 285 286 285 285 286 285 286 285 284 285 285 286 285 284 285 285 285 286 285 286 286 286 286 287 287 287 287 288 288 288 289 289 291 290 294 299 301 303 305 306 307 308 308
295 295 295 294 294 294 295 294 295 294 294 294 294 293 294 293 292 294 292 292 291 290 290 290 290 290 290 289 288 289 288 288 288 287 286 286 285 285 285 287 286 286 285 286 286 284 285 286 286 285 284 284 285 284 284 284 284 284 285 285 285 286 286 286 286 286 286 286 287 287 288 288 288 288 293 291 291 293 299 301 303 305 305 305 306
296 295 294 293 293 293 295 293 293 294 293 293 293 292 293 292 292 293 292 291 290 290 289 289 289 289 289 288 288 289 288 288 288 287 286 286 285 285 285 286 287 285 285 284 284 286 284 286 284 287 284 283 283 283 283 283 284 284 285 285 285 286 285 285 285 285 287 286 286 287 287 288 289 294 290 290 290 291 295 300 302 303 304 305 305
296 295 295 294 293 293 294 293 293 294 293 293 293 292 292 292 291 291 292 290 290 289 289 289 289 289 289 288 288 289 288 287 287 287 286 286 285 285 285 285 286 285 284 284 284 284 284 284 283 284 284 283 282 282 282 283 284 284 285 284 285 284 285 285 285 288 286 286 286 286 287 287 288 288 289 290 290 291 291 295 300 301 303 303 303
296 295 294 294 293 293 293 293 293 293 293 293 292 291 291 290 289 290 290 289 289 289 289 288 288 288 288 288 288 288 288 287 287 286 286 286 285 285 285 285 285 284 284 283 283 285 285 283 283 283 284 284 283 282 283 283 284 284 284 284 284 284 285 285 286 285 285 285 286 289 289 288 289 289 290 290 290 291 291 292 292 292 293 300 300
296 294 294 293 292 292 292 292 292 293 292 292 292 290 290 289 289 288 288 288 288 289 288 288 288 288 289 289 288 287 288 287 286 286 286 285 284 284 284 285 284 283 283 283 282 282 282 282 282 283 282 283 285 283 283 282 283 282 283 284 284 284 283 284 284 284 285 285 285 287 287 288 288 289 289 290 291 291 291 292 292 291 291 294 298
295 294 293 293 292 292 291 291 292 292 292 291 291 290 289 288 287 288 288 289 289 288 288 287 287 287 288 288 288 287 287 287 286 286 285 286 284 284 284 283 284 284 283 283 282 282 283 282 283 284 283 281 281 282 282 282 281 281 282 282 282 283 284 285 284 284 284 284 285 285 286 287 288 288 289 289 289 290 290 289 288 288 288 288 290
293 293 293 292 292 292 291 292 292 292 292 292 291 291 290 290 289 289 289 289 288 288 287 287 288 288 288 288 287 286 287 286 286 285 285 285 284 283 283 283 283 283 283 283 282 286 284 282 282 281 282 282 280 282 283 282 279 278 278 279 280 281 282 283 282 283 284 285 284 284 284 284 285 285 285 285 287 287 287 287 287 288 288 288 289
294 293 293 292 292 292 292 292 292 291 292 292 292 291 290 290 289 288 289 287 288 288 287 287 288 287 287 287 287 286 286 286 286 286 285 284 284 283 283 283 283 284 283 282 282 281 281 281 281 281 280 281 282 283 282 282 279 279 279 278 276 277 281 280 281 281 283 283 284 283 284 284 284 284 285 286 286 286 286 287 287 287 287 287 287
293 292 292 292 292 292 292 292 291 291 291 292 292 291 290 288 287 288 287 287 286 287 286 286 286 286 286 287 287 286 286 286 285 285 285 284 283 283 283 282 282 283 282 281 281 281 281 281 281 282 281 278 278 278 283 281 280 279 275 277 276 276 275 276 278 281 283 283 283 283 284 284 285 285 285 284 285 285 285 286 286 286 286 287 287
293 292 292 292 293 292 292 292 292 291 291 292 292 290 289 287 287 287 287 286 286 285 285 284 285 286 286 286 286 286 286 285 285 285 285 284 283 283 283 282 282 282 282 281 280 281 281 281 281 281 280 279 278 279 280 281 280 282 279 276 275 275 274 277 278 279 279 280 281 282 283 284 284 283 284 284 285 285 285 285 285 285 285 286 286
292 293 293 293 293 292 292 292 292 291 291 291 291 290 289 288 286 286 285 285 284 284 284 285 285 285 286 286 286 286 286 285 285 285 285 284 283 283 282 282 282 281 282 281 281 280 280 280 281 280 279 280 279 279 277 281 282 282 281 280 279 274 275 277 277 274 278 282 281 282 282 282 282 283 283 284 284 284 285 285 285 284 285 285 285
293 293 293 293 292 292 292 292 291 291 291 291 291 290 289 288 288 287 287 286 285 286 286 286 286 286 286 285 286 285 286 285 284 284 284 284 283 283 283 282 282 281 283 281 280 280 280 280 281 280 280 283 280 278 278 278 278 279 281 281 281 281 280 277 274 277 274 277 277 279 280 281 281 282 282 282 283 283 283 284 283 283 284 284 285
293 292 292 292 292 292 291 291 291 291 291 291 290 290 289 288 288 287 287 287 286 286 286 286 286 286 285 285 285 285 285 285 284 284 284 284 283 283 283 282 281 281 282 280 280 280 281 281 281 281 280 281 280 278 277 278 277 277 281 279 278 279 279 279 278 277 275 274 275 278 279 280 280 280 281 281 282 282 282 282 282 283 283 284 284
292 292 291 292 292 291 291 291 291 291 290 290 290 290 290 289 288 287 287 287 287 286 286 286 286 285 285 284 284 284 284 284 284 284 283 283 284 283 282 281 281 281 282 281 280 280 280 279 279 279 279 279 279 279 278 277 278 277 277 276 277 276 277 277 277 276 275 274 274 275 276 278 278 279 281 281 281 281 282 281 282 283 283 283 283
292 292 291 291 291 291 291 291 290 291 290 290 290 289 289 289 288 287 287 286 286 284 285 284 284 284 284 284 284 284 284 283 283 283 283 283 283 282 282 281 281 281 282 280 280 279 279 279 279 279 279 278 279 279 279 278 278 277 277 278 277 276 276 276 275 275 275 275 273 274 275 275 275 276 278 279 280 281 281 282 281 281 282 282 282
290 291 291 290 290 291 290 290 290 291 290 290 289 289 289 289 288 288 287 286 285 284 284 284 284 284 283 283 283 284 284 283 283 283 283 282 282 282 281 281 281 281 281 280 279 279 279 279 279 279 279 278 278 278 280 279 279 278 277 277 276 276 275 275 275 275 275 274 274 274 275 276 275 275 277 279 280 280 281 281 280 281 281 281 282
Wind_Speed
2 3 1 4 6 8 11 11 12 12 12 13 13 13 13 14 14 14 13 12 13 13 12 13 12 12 12 12 12 12 12 14 14 14 15 14 14 14 13 13 13 12 12 12 12 11 11 12 11 13 13 13 13 13 12 12 12 12 12 11 12 11 11 11 12 11 10 11 12 12 11 10 9 8 7 5 7 7 7 7 6 4 4 5 7
4 2 0 2 7 7 8 11 11 11 11 11 12 13 13 14 14 14 13 13 13 14 13 13 14 14 14 13 13 13 14 14 14 14 15 14 14 14 15 15 14 14 14 13 13 13 13 13 12 14 15 15 15 15 14 14 14 13 12 12 12 11 11 12 12 12 11 11 11 12 11 10 10 9 6 5 7 8 8 7 7 3 2 7 7
4 3 1 2 8 7 8 9 10 9 10 10 10 11 12 12 13 12 12 13 13 14 14 14 14 15 14 13 14 14 15 15 16 14 14 14 14 14 14 13 14 15 14 14 15 14 14 14 14 16 16 16 15 15 15 15 15 14 13 13 12 12 13 13 13 12 12 13 11 12 10 8 7 8 4 5 8 9 8 6 5 5 4 8 7
5 3 2 3 5 8 8 9 9 9 9 8 8 10 11 11 11 12 12 11 12 12 13 12 12 13 13 14 13 14 14 14 14 14 14 13 13 13 13 13 13 13 13 15 15 14 15 15 16 17 16 15 14 14 15 14 14 15 15 14 14 14 13 12 11 11 11 13 12 11 4 5 4 2 7 6 9 9 6 5 6 7 8 8 8
6 4 3 3 3 6 9 9 10 10 9 8 7 8 8 10 10 10 11 11 10 10 10 11 11 12 12 12 12 12 13 12 12 12 12 13 13 13 12 12 12 12 12 13 13 13 14 15 16 15 13 13 13 13 13 13 13 13 14 15 15 15 15 15 15 14 12 11 11 8 6 4 4 1 6 8 9 8 5 5 6 9 9 11 11
6 4 3 3 3 3 9 10 10 10 9 8 8 9 9 9 10 9 9 9 9 9 10 11 11 11 11 11 12 12 12 13 12 12 13 13 12 12 12 11 11 11 11 12 12 12 12 12 13 13 12 11 12 12 12 12 12 12 12 13 13 13 14 14 15 15 14 11 8 5 5 5 2 4 8 7 7 7 7 9 10 11 11 11 11
8 4 4 3 2 3 8 11 10 10 10 10 9 9 10 10 9 9 9 9 10 9 10 10 10 11 11 12 13 13 12 12 12 12 12 12 12 12 12 12 11 11 11 11 12 12 12 12 12 12 12 12 12 11 11 11 11 11 11 11 11 12 12 13 13 14 14 8 5 5 5 4 3 3 7 10 6 9 8 9 9 10 10 11 11
6 5 4 3 2 4 9 10 10 11 11 10 10 10 10 11 11 10 10 10 10 10 10 10 11 11 12 12 12 12 12 12 12 12 12 13 13 12 12 12 12 12 12 12 12 12 12 12 12 12 12 12 12 12 11 11 11 11 11 11 11 11 12 13 13 13 13 6 6 6 5 4 3 3 7 8 10 9 8 8 8 8 9 10 9
6 6 5 3 3 7 8 10 10 10 11 11 11 11 12 12 12 12 12 12 11 12 12 12 12 12 12 13 13 13 13 13 13 13 13 13 13 13 13 13 13 13 12 12 12 12 13 13 13 13 12 12 12 12 12 11 11 11 11 10 10 10 11 12 12 12 7 6 6 6 7 6 4 4 6 6 7 6 7 6 5 6 8 9 8
5 5 5 4 4 7 9 10 11 11 11 11 11 11 12 12 12 12 12 12 12 12 12 12 12 12 13 13 13 13 13 13 13 12 12 13 13 12 12 12 12 12 12 12 12 12 12 12 13 13 13 13 13 13 13 12 12 11 11 11 10 10 11 11 11 8 5 5 7 7 7 10 5 5 6 9 8 6 7 4 3 2 2 5 6
7 6 4 4 5 9 11 11 11 11 12 12 12 12 12 12 12 12 12 12 12 12 12 12 12 12 13 13 13 13 13 13 13 12 12 12 12 12 12 12 13 12 12 12 12 12 12 12 12 13 13 14 14 14 14 13 13 13 13 12 12 11 11 11 9 5 5 5 6 6 7 11 6 5 10 10 8 4 5 4 2 2 4 6 7
8 6 4 3 7 10 12 12 12 12 12 12 12 12 12 12 12 12 12 12 12 12 12 12 12 12 12 13 13 13 13 13 12 12 12 12 12 12 12 12 12 12 12 12 12 12 12 12 12 12 12 12 12 12 13 13 13 13 13 14 14 13 12 12 6 6 5 6 6 6 6 7 7 8 14 13 9 7 3 3 4 5 6 6 6
8 6 5 4 4 10 12 12 12 12 12 12 12 12 12 12 12 12 12 12 12 12 12 12 12 12 12 13 13 13 13 13 13 13 12 12 12 12 12 12 12 12 12 12 12 12 12 12 12 12 12 12 12 11 11 12 12 12 13 13 14 14 14 14 5 5 5 5 5 7 6 6 6 10 13 13 11 8 7 6 6 6 6 7 7
9 7 5 4 4 8 12 12 13 13 12 12 12 12 12 12 12 12 12 12 12 12 12 12 12 12 12 12 13 13 13 13 13 13 13 13 13 13 12 12 12 12 12 12 12 12 12 13 13 13 12 12 12 12 11 11 11 12 12 13 13 14 14 9 7 5 5 4 5 6 6 5 5 12 13 12 10 9 8 7 7 7 7 7 8
10 8 6 5 4 4 11 12 12 13 13 13 12 12 12 13 12 13 13 13 12 12 12 12 12 12 12 12 12 13 13 13 13 13 13 13 13 13 13 13 13 13 13 14 13 13 13 13 13 13 13 13 13 12 12 12 12 13 13 13 13 12 13 6 5 4 5 5 5 5 5 5 10 13 12 11 10 10 9 8 9 9 9 9 8
10 9 7 6 5 4 4 9 13 13 13 13 13 12 12 13 13 13 13 13 13 13 12 12 12 12 12 12 12 13 13 14 13 13 13 13 13 14 14 15 15 15 16 16 16 16 16 16 16 15 15 14 14 13 13 13 13 14 14 14 13 14 13 7 5 5 5 5 5 5 5 4 14 13 12 13 13 12 11 11 11 11 11 11 11
10 9 9 7 6 5 5 5 8 13 12 13 13 13 13 13 13 13 13 13 13 13 13 12 12 12 12 12 12 13 13 13 14 14 14 14 14 15 15 16 16 16 16 16 16 16 16 16 17 17 16 16 16 15 14 13 14 14 14 15 15 15 12 8 6 6 6 5 5 5 6 5 12 14 14 14 14 14 13 13 14 14 14 14 13
8 9 9 8 7 6 6 5 6 6 6 9 11 13 12 13 13 13 13 13 13 13 12 12 12 12 12 12 12 12 13 13 14 15 15 14 14 13 13 13 13 12 12 13 13 13 13 14 15 15 15 16 16 16 16 16 15 15 15 15 16 13 10 9 6 6 7 6 6 5 6 10 16 14 14 14 14 14 14 14 14 14 15 15 15
6 8 8 8 8 7 7 5 5 5 6 5 4 7 12 12 13 13 13 13 13 12 12 12 11 11 11 12 12 11 11 12 12 13 13 12 11 9 10 11 11 11 11 11 13 12 12 13 14 14 14 16 16 16 17 16 16 16 16 17 15 11 8 6 6 6 6 6 7 7 7 15 15 16 15 15 15 15 15 15 15 15 15 16 15
5 7 8 8 7 8 7 6 6 6 5 5 5 5 9 12 12 13 13 13 13 13 12 11 10 8 8 9 10 7 7 6 9 6 9 9 8 6 9 10 11 11 11 13 13 13 14 14 15 15 16 16 16 16 16 16 16 16 16 16 13 10 7 6 5 5 6 6 6 6 10 15 15 15 15 16 16 16 17 16 15 15 15 15 15
5 7 8 8 8 9 8 6 6 7 6 5 4 4 6 10 8 10 11 12 12 12 12 9 7 6 5 6 6 5 4 4 3 3 5 2 3 4 8 10 12 11 13 14 14 14 14 15 15 16 16 16 16 14 14 15 16 16 16 14 10 6 6 6 6 5 5 6 5 6 13 14 14 14 14 15 15 14 15 16 16 15 15 15 15
8 8 8 9 10 9 10 8 7 8 8 6 5 4 4 6 4 4 4 6 8 7 5 4 5 3 5 4 4 4 4 3 3 4 2 1 1 2 7 10 12 12 13 14 14 14 14 14 14 15 16 16 15 7 7 9 13 14 13 11 7 6 6 6 6 6 5 6 5 7 15 15 14 15 14 13 13 13 13 14 15 15 15 15 15
9 8 9 10 10 9 9 9 9 9 9 7 6 6 5 5 5 4 4 5 5 4 4 4 3 3 4 5 6 6 5 4 3 3 3 4 1 4 10 11 12 12 12 13 14 14 14 14 14 14 15 13 7 6 6 6 7 10 9 8 6 6 6 7 7 6 7 6 6 12 16 15 15 15 14 14 13 13 14 14 15 15 15 16 16
12 11 11 8 10 10 10 9 10 10 10 8 7 7 6 5 5 5 4 5 5 4 4 4 3 3 5 5 6 5 5 4 4 6 5 3 4 6 8 9 9 10 9 6 9 12 14 12 13 13 8 5 5 6 6 6 6 6 6 6 6 6 7 6 6 6 6 7 6 15 17 17 16 15 14 14 14 14 14 15 15 15 16 16 15
11 8 6 10 11 11 10 10 10 10 9 8 8 7 6 6 5 5 5 5 5 5 5 4 4 4 5 6 5 5 5 5 4 5 4 3 3 4 4 4 3 3 5 6 7 7 7 7 6 6 6 6 6 7 6 6 6 6 6 6 5 5 5 5 6 6 6 6 6 14 17 17 17 17 16 15 15 14 15 15 15 15 16 16 16
7 9 12 11 12 11 11 10 10 10 10 10 9 8 8 8 7 7 6 5 5 5 5 5 4 4 5 5 5 6 6 5 4 5 4 3 3 3 3 3 3 5 6 7 6 6 5 5 5 5 5 5 5 6 6 6 6 6 6 5 6 5 5 5 5 6 5 6 5 12 15 16 17 17 17 16 15 15 15 15 15 15 15 16 16
11 13 11 10 11 11 10 11 11 10 11 9 8 8 8 8 8 8 8 7 6 6 6 6 5 4 4 4 6 6 6 6 6 5 4 3 3 3 4 4 5 6 6 6 5 5 4 4 4 3 3 4 4 4 5 5 5 5 6 6 6 6 6 6 6 6 6 6 7 13 15 17 18 18 18 18 17 16 15 15 15 15 15 15 15
8 10 11 11 12 14 12 12 11 11 10 10 9 9 8 8 8 8 8 8 8 7 6 6 5 5 4 4 6 6 7 6 5 5 4 3 4 4 4 5 6 6 5 6 5 4 3 3 2 3 3 3 3 4 4 4 5 4 4 5 5 5 6 6 6 6 6 6 7 10 15 17 19 19 19 19 19 18 17 16 16 16 16 16 16
12 12 11 12 13 13 13 14 12 12 10 10 10 8 8 8 8 8 8 8 7 7 7 6 6 5 3 4 5 7 6 6 6 5 5 4 4 4 4 5 5 5 5 4 3 2 2 2 3 3 3 3 4 4 4 4 4 5 5 5 5 6 5 6 5 6 5 6 6 7 12 16 19 20 20 20 20 20 19 18 18 17 17 17 16
16 13 13 13 12 13 14 15 14 13 11 10 9 9 9 9 9 8 8 8 7 7 7 6 6 6 4 4 5 6 6 6 6 5 6 5 5 4 4 4 6 4 5 4 2 2 2 3 3 3 3 4 5 5 4 5 5 4 5 5 5 5 6 6 7 7 7 6 6 6 10 13 16 18 19 20 20 20 19 19 18 17 17 17 17
12 14 13 12 12 13 13 13 12 11 9 11 9 10 8 9 9 8 8 8 8 8 7 7 6 6 5 4 5 6 6 5 6 5 5 6 5 5 4 4 5 4 3 3 1 2 2 3 3 4 4 5 5 5 5 5 5 6 5 6 6 6 6 5 6 5 6 6 6 6 7 12 14 16 17 18 18 18 18 18 18 18 17 17 17
14 16 13 11 12 15 14 13 13 12 11 10 9 10 10 9 8 8 8 7 8 7 7 7 6 6 4 4 5 6 6 5 5 5 5 6 6 5 4 4 4 3 3 3 3 2 3 3 3 3 3 4 5 5 5 5 6 6 6 6 6 6 6 6 7 8 8 8 6 6 6 7 11 14 16 17 17 18 17 17 16 17 17 18 17
12 14 13 13 16 15 14 14 13 12 12 11 10 9 8 8 8 8 7 7 8 7 7 7 7 6 5 5 5 6 5 6 6 5 5 6 5 5 4 4 4 3 3 3 3 3 3 4 4 3 4 4 4 5 5 5 5 6 6 6 5 6 6 6 7 7 7 7 7 7 7 7 7 9 12 13 16 17 17 16 16 16 16 16 16
11 9 11 15 13 10 10 10 12 14 13 10 8 8 8 8 7 7 7 8 8 8 7 7 7 7 6 5 5 5 6 6 6 5 5 6 5 5 5 4 3 3 3 3 3 3 3 3 3 4 4 4 5 5 6 7 6 5 6 6 6 6 6 6 6 7 7 7 6 6 6 6 6 6 7 10 13 16 17 16 16 15 14 14 15
8 10 17 17 14 13 11 10 13 13 12 11 10 9 8 8 8 8 8 8 8 8 8 8 8 7 7 7 6 6 6 6 5 6 6 6 6 5 5 5 4 3 3 2 3 2 3 3 3 4 3 3 3 4 5 6 6 7 7 6 6 7 6 7 7 7 6 7 5 6 6 6 6 5 5 5 7 12 15 16 16 15 14 14 15
15 15 12 12 14 14 13 12 13 14 13 13 10 9 10 9 8 8 8 8 8 8 8 8 8 7 7 7 6 6 6 6 6 5 6 6 6 6 6 5 4 4 3 2 2 3 2 3 2 3 3 3 5 5 4 6 6 7 7 6 6 6 7 7 8 7 7 6 6 6 6 6 6 5 5 5 6 6 12 14 15 15 14 14 15
15 13 14 14 14 14 14 14 16 16 13 12 10 8 9 9 9 9 9 9 8 8 7 8 8 8 7 7 7 7 7 6 6 5 6 6 6 6 5 5 4 4 3 3 2 2 2 1 2 3 3 3 4 5 5 5 7 7 7 8 7 7 8 8 8 7 6 6 7 6 6 6 5 5 5 5 6 7 8 12 14 14 14 14 14
13 14 15 17 17 15 14 13 12 13 12 12 11 10 9 9 7 8 8 8 7 7 7 8 8 8 8 8 8 7 7 6 6 5 6 5 5 6 5 5 4 4 3 3 2 1 2 3 2 1 3 3 4 5 7 6 6 7 8 8 9 7 8 8 8 7 6 7 6 6 6 5 5 6 5 6 6 7 6 8 11 11 9 8 11
12 14 14 13 12 12 11 12 13 13 11 11 9 9 8 6 5 6 7 6 6 6 7 8 7 8 8 8 8 7 7 7 6 6 6 6 6 5 5 4 4 4 4 3 2 2 3 3 3 0 1 1 2 3 5 7 7 7 8 9 8 8 9 8 8 7 6 6 6 7 4 5 5 5 6 6 6 6 6 6 4 3 3 6 11
12 13 14 13 13 12 10 10 11 12 10 9 9 9 8 9 9 6 6 6 7 8 7 8 7 8 8 9 8 8 7 7 7 6 6 6 6 6 5 4 4 4 4 3 3 3 3 3 1 0 1 0 1 3 3 5 6 7 9 8 6 8 10 9 8 6 6 5 5 5 5 5 5 5 5 5 6 5 5 4 3 4 4 6 11
12 14 14 14 15 16 14 15 13 13 12 12 11 12 12 8 6 10 11 10 10 8 8 7 8 8 9 9 9 8 8 7 7 7 7 7 6 6 6 5 5 5 5 4 4 4 3 2 1 0 1 1 0 1 3 4 6 6 5 7 8 6 10 9 6 5 4 5 4 4 5 5 5 5 5 4 4 5 4 4 5 6 6 6 5
11 13 16 16 14 14 16 14 12 13 14 14 13 13 13 14 14 13 11 10 10 10 11 9 9 8 9 9 9 8 8 8 8 7 7 7 7 7 6 6 5 5 4 4 4 3 2 1 2 1 0 1 1 1 4 4 3 5 9 12 6 4 6 4 3 3 3 4 5 6 7 6 6 5 5 5 5 4 5 5 6 6 5 4 4
16 17 16 15 15 15 15 14 14 14 13 13 12 13 10 7 8 7 10 7 4 4 4 6 6 8 8 8 8 8 9 8 8 8 8 7 7 7 6 6 6 5 5 5 4 4 3 3 3 2 0 0 1 1 1 4 2 4 6 3 5 12 5 4 2 6 14 13 8 6 6 5 6 5 5 4 5 6 5 6 5 4 4 4 5
12 11 14 17 15 15 15 15 14 14 13 13 12 9 8 5 4 4 4 4 4 4 4 4 5 6 7 8 8 9 9 9 8 7 6 7 7 7 7 7 6 5 6 6 5 4 4 3 3 2 2 1 1 1 1 3 2 5 7 3 5 2 8 2 12 14 14 11 5 6 4 6 4 5 4 6 7 6 6 5 4 5 5 5 5
14 15 15 16 13 17 16 15 14 15 13 13 12 9 8 6 6 6 4 4 4 5 5 6 8 8 7 9 11 9 9 8 8 8 8 8 7 7 7 7 6 6 6 6 5 5 5 4 4 4 3 1 1 0 1 2 1 1 1 3 4 3 2 9 13 11 1 2 6 9 8 6 6 6 5 6 6 6 6 5 5 4 5 5 6
15 15 15 16 14 13 13 13 12 12 13 13 13 11 12 12 10 10 10 9 8 10 14 16 13 13 14 9 7 9 10 9 8 8 8 8 8 8 7 7 6 6 6 6 5 5 4 4 5 5 3 3 2 1 2 1 0 0 2 4 4 5 7 7 6 8 1 10 11 9 6 5 5 5 5 6 7 7 5 6 4 5 5 6 6
15 12 12 13 13 13 14 15 14 12 12 13 14 12 12 12 16 16 14 15 15 12 10 8 11 9 7 10 10 8 9 10 8 8 8 8 8 8 8 7 7 6 5 6 6 6 6 5 4 4 4 4 3 2 3 3 3 1 2 3 4 5 5 5 5 7 18 0 3 3 4 5 5 5 7 6 6 6 6 5 5 5 5 5 7
12 11 12 11 14 14 15 15 12 12 12 13 15 15 15 14 14 14 13 13 14 13 12 10 8 7 9 9 8 9 9 9 9 8 9 8 8 8 8 7 7 6 6 7 7 6 5 3 4 4 4 4 4 4 3 1 1 3 0 2 3 4 4 4 5 7 8 17 11 2 4 7 5 5 7 10 10 8 8 5 4 6 7 8 8
11 13 13 13 12 12 14 13 14 13 13 15 15 15 14 15 15 13 13 12 10 7 7 6 8 8 10 8 8 8 8 8 9 9 9 9 8 8 8 7 7 7 7 6 5 6 5 5 4 4 4 3 4 3 2 4 3 5 1 2 2 4 5 4 5 3 6 8 19 11 9 4 5 7 10 10 7 6 5 5 6 9 9 9 9
10 10 11 11 12 12 14 15 15 13 13 15 16 16 15 13 14 15 16 12 9 6 8 9 9 9 11 10 9 9 9 8 9 9 9 9 8 8 8 9 8 8 7 6 5 5 4 4 4 4 4 4 3 4 5 5 4 3 3 3 4 4 4 4 3 5 5 8 14 18 10 15 18 2 4 8 9 6 5 8 9 10 10 8 7
8 10 10 11 11 13 14 16 17 13 13 16 16 18 16 14 15 16 17 15 13 11 10 10 9 10 11 11 11 10 9 10 8 8 9 8 8 8 8 8 7 7 7 6 6 6 6 5 5 4 4 5 4 4 3 4 4 4 3 5 6 6 6 5 6 5 5 7 10 15 15 13 13 20 4 7 3 7 10 9 9 11 7 7 7
Wind_Direction
166 119 311 69 87 90 97 97 96 92 92 92 89 91 92 92 91 92 90 93 94 89 89 88 88 87 84 81 81 83 81 83 78 74 71 64 60 60 58 58 57 56 53 52 55 54 50 55 55 57 52 47 45 42 43 38 34 32 30 30 29 28 28 25 24 18 6 350 342 339 335 328 326 327 334 359 38 56 52 40 31 15 9 0 29
153 167 78 75 91 97 96 97 97 96 95 92 91 90 91 93 92 92 95 94 92 90 87 90 86 84 83 86 86 85 84 81 77 76 68 63 56 52 51 52 51 52 52 51 51 54 56 55 54 57 50 44 40 38 37 37 34 33 31 30 33 29 27 24 22 16 1 348 338 334 334 327 327 331 340 36 49 65 60 43 29 25 345 7 25
141 120 136 99 100 99 107 106 97 93 89 93 96 97 100 99 96 92 90 88 86 90 92 88 89 87 82 82 83 79 77 75 72 70 69 65 59 55 52 52 48 47 48 52 51 50 57 60 59 58 51 42 40 35 32 33 32 31 30 29 29 30 33 34 24 12 355 344 334 337 336 335 338 321 80 57 64 66 59 44 28 11 354 10 8
124 142 114 77 93 107 113 113 114 99 91 90 101 100 96 95 96 99 92 87 84 85 85 84 86 82 79 76 81 78 76 76 76 71 68 65 62 58 55 51 48 47 46 46 47 46 48 50 59 59 53 45 41 37 34 31 29 29 28 28 28 25 25 24 18 10 355 339 331 340 336 336 330 329 89 63 66 61 63 47 26 14 4 3 8
135 152 122 90 71 105 108 111 117 118 110 110 105 105 106 102 98 100 97 93 94 94 92 90 90 88 84 83 83 82 79 80 79 76 73 70 65 60 57 54 50 49 47 47 49 48 47 45 49 57 53 49 44 40 37 32 28 27 26 24 24 19 15 9 3 359 355 343 331 342 335 341 315 161 33 52 66 72 60 45 29 18 19 23 22
145 143 126 93 66 105 116 113 112 118 118 112 108 104 102 103 102 101 103 101 100 97 95 92 94 92 92 87 83 82 80 77 77 77 74 73 70 66 61 57 54 52 51 51 48 49 49 50 52 58 58 52 50 45 41 37 33 29 27 24 23 19 15 7 358 350 346 345 343 339 338 337 334 346 356 37 73 79 57 36 20 22 21 15 12
120 130 113 100 89 115 117 114 117 117 116 115 113 110 110 110 110 107 104 102 93 93 92 91 89 91 91 85 80 79 78 76 75 73 73 71 68 64 60 56 55 52 50 50 49 47 47 47 49 51 52 48 47 45 42 39 37 33 30 27 24 21 16 7 356 345 338 342 342 336 333 338 345 359 350 3 352 91 71 46 25 15 14 12 5
113 114 108 102 101 98 110 116 116 119 122 121 120 116 112 112 108 108 106 103 101 99 96 94 93 90 83 81 79 78 77 75 73 72 69 67 64 61 58 53 50 50 49 48 47 46 45 44 44 45 45 42 39 39 37 36 34 33 31 28 24 21 15 5 354 345 337 338 336 336 336 330 343 336 349 30 34 73 69 53 35 20 15 13 358
120 114 108 105 116 126 125 126 126 127 126 122 116 112 107 103 103 101 101 99 96 94 93 90 88 85 82 80 79 77 75 73 70 69 67 65 62 60 57 53 49 47 45 45 44 43 41 40 39 38 38 36 32 30 30 27 29 29 28 26 22 19 14 4 355 348 338 337 334 334 333 330 340 346 338 2 8 42 75 76 52 29 19 14 357
114 110 113 114 130 126 133 131 131 127 124 116 115 112 109 105 102 100 97 94 92 91 89 88 87 84 83 80 79 78 76 73 70 68 66 63 61 58 56 55 52 47 43 43 44 43 40 36 34 31 28 27 25 25 23 20 20 22 22 22 19 15 13 4 0 350 342 334 331 332 329 333 338 340 329 338 353 50 92 104 105 47 21 21 358
121 118 113 124 134 133 133 131 131 129 120 117 114 112 110 108 107 104 100 98 96 92 90 89 86 86 84 83 81 79 77 75 72 70 66 63 60 57 56 53 52 48 45 43 42 43 43 39 37 34 31 25 21 19 17 17 16 17 14 13 11 11 9 2 359 342 334 332 330 327 326 331 333 329 326 333 334 75 123 124 88 53 19 13 6
126 124 115 121 128 128 130 130 130 123 122 118 117 115 113 113 110 107 105 102 99 96 93 89 88 85 84 82 80 79 78 76 74 71 68 65 62 60 57 55 52 50 48 44 42 42 43 40 37 36 34 30 25 22 19 18 18 17 13 8 3 3 3 359 356 338 326 328 329 324 326 327 328 321 323 319 317 338 49 30 15 13 7 4 1
133 125 121 113 115 130 132 131 130 127 125 124 123 120 116 114 113 111 108 104 102 100 97 93 91 89 86 83 82 80 79 76 74 70 66 64 62 59 57 55 52 50 48 46 42 41 41 41 37 34 31 28 25 23 24 25 25 20 13 8 3 359 357 355 352 340 332 326 321 322 323 323 322 323 333 337 322 331 347 360 0 1 358 355 352
134 131 124 115 105 128 132 133 130 129 129 129 127 125 122 120 117 114 111 109 107 106 103 101 98 96 93 89 87 84 80 78 74 70 66 62 60 57 54 52 49 48 47 45 43 40 38 38 34 30 28 27 26 26 27 28 26 21 15 9 3 360 355 351 348 343 333 325 316 312 317 317 311 320 327 326 332 334 338 347 344 351 350 348 344
136 133 127 110 101 114 130 132 133 132 132 132 131 128 128 125 121 119 117 115 113 111 109 106 102 100 96 93 89 85 81 78 74 69 65 61 57 55 51 48 45 42 41 39 37 36 36 35 32 29 27 26 26 29 28 26 24 20 14 10 6 2 356 347 348 342 339 335 328 325 320 325 334 352 343 332 325 329 332 337 337 338 343 343 340
136 137 128 125 120 106 109 129 134 136 136 134 134 133 130 129 127 124 122 119 117 113 111 108 105 101 98 93 89 84 81 77 73 69 63 59 54 50 46 42 38 35 33 30 27 25 24 24 23 23 23 24 26 27 26 23 21 18 14 11 7 5 2 7 356 352 344 336 336 349 348 350 356 355 4 8 6 358 350 342 341 342 344 338 337
141 141 137 142 137 131 125 127 135 135 133 134 133 134 134 133 130 126 123 121 119 117 114 111 107 102 97 94 87 83 79 74 69 64 59 54 49 45 43 40 36 34 31 29 26 23 21 19 18 17 16 16 18 18 19 19 19 16 13 10 8 7 8 19 10 359 352 346 353 356 350 342 350 351 355 357 358 360 3 3 0 358 354 350 346
145 148 150 153 149 150 147 147 131 126 128 131 135 137 137 135 132 129 126 123 120 118 115 113 109 103 96 91 88 82 76 72 67 62 58 53 49 47 48 46 44 42 40 36 31 27 25 23 20 18 17 16 16 16 15 15 15 14 12 9 5 11 11 16 7 356 353 353 353 356 351 345 354 350 353 353 352 350 349 352 351 350 348 346 344
148 153 157 158 162 159 160 156 146 137 130 130 135 139 140 137 135 133 129 125 122 118 116 112 111 108 100 91 87 83 78 75 72 68 64 62 58 47 56 56 51 50 45 41 34 30 29 26 23 22 24 22 18 16 12 11 12 12 10 8 5 13 18 13 7 355 354 356 355 356 343 353 354 352 353 352 351 347 345 342 341 340 337 335 334
158 161 162 168 165 165 168 171 158 148 141 140 138 137 141 142 139 136 132 127 123 120 118 114 111 108 109 102 93 80 73 76 86 79 76 72 69 63 64 61 53 52 48 43 36 31 32 28 26 25 24 22 17 14 9 8 10 9 8 7 10 9 8 5 4 0 353 350 357 352 341 353 351 351 352 351 349 347 344 341 337 332 326 321 319
177 181 172 172 169 169 174 174 167 151 148 144 141 139 145 143 135 133 131 129 126 123 122 123 124 126 122 131 105 92 90 86 91 115 110 111 103 69 65 64 56 53 52 43 37 33 31 28 27 25 22 18 14 8 3 2 4 5 4 5 10 8 359 1 359 356 357 348 349 340 343 349 349 348 347 347 346 344 341 337 334 331 327 321 315
184 188 188 172 171 176 175 176 163 156 152 150 152 154 147 134 135 128 129 129 129 128 130 142 143 144 167 142 135 133 125 129 136 140 158 151 133 151 68 68 59 55 54 44 39 35 30 26 26 25 20 15 9 4 357 355 353 356 358 0 3 357 357 359 358 355 350 343 348 333 345 344 344 343 343 343 343 342 339 335 332 329 327 325 323
196 190 193 181 176 173 173 172 165 160 152 155 159 163 153 150 150 150 152 145 142 131 137 141 137 132 140 141 140 140 142 148 158 177 175 182 171 87 73 70 63 57 56 50 41 36 31 25 23 22 17 12 7 0 357 353 348 351 355 355 354 354 355 356 353 350 345 341 344 335 343 341 340 340 338 339 340 340 338 334 331 328 325 323 322
194 189 183 178 174 175 178 171 165 162 155 161 162 167 168 159 162 164 161 157 149 144 140 142 135 125 142 137 133 141 145 156 141 121 110 87 66 67 69 65 63 56 63 62 46 32 28 20 15 17 14 10 5 0 357 351 350 350 348 351 350 348 351 348 346 340 338 336 334 332 337 337 336 335 334 335 334 336 334 332 331 328 325 324 321
188 172 174 186 182 177 174 174 166 165 160 163 165 172 172 161 163 166 165 162 151 144 146 148 147 143 146 146 147 138 132 129 108 97 98 90 80 78 77 76 89 73 64 56 47 31 24 17 9 10 11 6 3 357 356 352 350 347 345 342 346 343 339 337 334 329 324 326 322 325 331 331 331 331 331 330 330 331 331 329 328 326 326 324 322
159 180 191 187 186 180 175 172 167 170 169 169 172 171 164 168 170 174 170 175 159 157 152 155 157 157 156 167 142 133 128 118 106 107 106 111 102 100 108 106 86 68 54 55 48 40 25 18 9 7 4 5 1 353 351 348 343 341 338 339 340 335 331 326 326 322 315 312 308 314 323 326 324 324 324 324 326 326 326 326 326 325 324 322 321
183 195 186 187 183 183 176 172 174 173 175 176 171 170 175 174 173 174 169 177 168 160 161 161 166 167 167 169 142 138 130 126 116 118 124 131 114 102 88 72 73 66 59 67 55 42 35 16 4 359 353 0 352 351 343 340 335 334 331 332 336 333 333 332 330 327 323 321 317 320 322 324 324 323 323 322 321 323 324 325 324 323 323 320 319
183 188 187 185 184 186 177 174 178 175 177 178 177 177 174 171 175 168 168 172 162 163 161 164 157 159 168 155 139 136 134 127 128 124 137 123 103 89 78 66 71 70 71 72 68 43 31 9 353 342 350 350 348 338 338 329 328 329 325 326 327 329 327 326 322 319 319 317 317 318 319 322 323 323 322 322 324 324 324 324 325 324 323 322 321
191 190 186 185 189 182 176 180 177 180 178 177 180 178 170 169 170 167 168 170 163 163 161 151 149 158 147 138 136 131 126 129 130 135 126 108 94 83 80 77 81 81 78 69 79 59 23 1 349 340 343 344 341 337 336 328 324 325 330 328 328 327 328 324 319 315 311 308 310 308 315 320 321 321 322 324 323 323 324 325 325 326 325 325 324
196 184 182 192 182 179 180 182 179 179 178 176 180 175 173 171 173 170 169 165 167 162 154 149 156 150 153 136 132 134 137 138 132 132 119 110 101 92 84 88 90 98 85 74 71 73 23 0 356 354 352 353 349 336 345 332 331 329 333 330 325 324 322 323 321 320 317 319 317 313 312 314 317 319 321 321 321 323 323 326 327 327 326 325 324
181 189 188 186 180 176 184 181 178 178 175 180 177 178 168 174 173 164 165 165 161 155 152 150 152 154 161 140 128 130 133 129 128 132 121 116 111 106 105 102 92 99 101 80 57 47 31 26 4 354 3 359 348 339 346 340 335 335 331 330 324 323 319 315 311 307 309 307 308 308 308 312 314 316 318 318 318 320 323 324 326 326 327 327 326
187 193 189 175 175 184 180 180 177 177 177 182 178 176 176 172 168 161 166 159 154 155 149 150 155 156 155 145 133 131 131 131 133 135 130 123 121 118 125 105 116 108 97 85 50 43 51 19 12 16 13 6 349 344 343 345 335 325 324 322 321 322 319 319 318 318 315 312 308 305 304 306 310 310 311 312 314 316 318 321 323 326 327 327 327
200 188 177 174 182 180 178 180 175 178 181 182 182 179 171 166 164 169 161 157 156 151 150 155 153 156 153 152 143 138 137 141 147 145 137 132 130 125 123 121 124 116 92 82 72 49 36 26 13 17 14 7 358 344 343 337 326 319 319 313 318 313 309 311 305 305 303 301 303 308 309 307 303 302 303 304 307 309 312 316 322 324 324 326 327
187 179 170 184 181 176 175 173 177 179 183 180 176 174 173 166 159 162 161 157 159 155 157 152 152 155 153 157 151 143 145 149 149 148 138 137 134 133 133 122 138 116 96 84 69 60 41 39 21 30 6 9 358 344 341 331 318 310 308 305 309 301 304 300 295 291 290 287 289 288 287 287 286 294 299 299 301 301 304 311 316 319 321 322 325
172 179 185 183 171 174 173 177 178 178 178 180 177 177 170 165 162 164 167 163 161 161 160 155 156 159 155 160 155 148 149 153 160 148 147 141 137 135 124 146 135 115 89 92 94 57 67 46 36 25 11 6 1 338 332 314 313 315 310 310 305 306 301 293 292 289 281 282 282 273 268 267 269 270 276 281 286 289 293 300 309 314 317 322 323
185 187 181 169 177 175 176 174 175 176 181 180 175 171 170 167 165 166 164 167 163 164 165 162 156 156 158 163 161 153 154 157 158 154 145 146 141 139 143 139 127 107 107 82 81 77 67 46 10 47 31 357 348 331 326 314 309 307 306 303 298 300 297 293 291 286 280 283 274 272 267 266 271 272 275 279 278 274 280 290 298 306 312 316 317
187 176 177 177 176 175 177 173 177 178 177 173 165 165 164 167 168 170 169 166 166 167 163 156 156 160 165 166 166 160 160 160 160 156 146 150 142 137 146 132 129 126 123 108 92 119 95 79 14 51 64 358 346 323 320 315 313 307 307 304 301 301 295 293 286 278 285 271 273 271 272 272 270 270 275 275 275 271 279 283 289 295 299 303 311
185 180 178 176 178 177 178 175 174 173 172 170 168 164 166 161 162 166 167 171 171 167 163 159 164 166 165 169 169 162 163 163 163 158 151 152 146 138 137 135 127 126 128 119 133 105 90 106 78 46 50 22 342 331 318 315 311 309 307 304 302 295 287 288 277 280 272 271 268 268 267 275 276 273 271 269 264 272 273 279 286 293 301 305 313
183 178 175 176 169 172 172 174 171 172 168 165 158 155 152 144 142 156 168 173 172 172 168 169 167 165 171 168 165 163 165 165 164 160 153 150 142 137 134 144 136 134 126 129 120 97 95 100 103 75 39 19 287 297 296 304 310 304 298 294 290 285 283 275 276 276 262 259 268 270 280 272 267 268 268 263 267 273 273 277 282 284 288 301 315
177 173 172 171 170 169 170 169 174 169 161 157 155 155 155 161 161 160 171 186 179 176 182 177 166 169 171 168 169 165 168 166 165 161 155 153 148 151 148 147 144 140 140 139 153 141 124 91 87 50 352 82 223 275 294 308 299 296 291 286 270 277 279 271 275 267 269 270 267 278 281 273 271 270 268 265 277 276 285 287 286 297 310 307 304
173 170 170 175 173 172 169 178 176 171 166 166 170 166 168 165 171 184 184 183 181 176 179 178 179 175 168 169 168 167 166 163 165 162 164 158 153 149 148 155 153 151 155 173 171 158 151 146 151 87 349 23 1 165 298 310 308 307 267 269 290 270 266 274 272 278 280 277 272 284 271 279 274 276 264 277 283 289 287 294 303 311 305 296 292
181 171 177 177 173 172 178 176 174 177 178 176 174 178 181 182 177 185 180 180 174 177 184 188 182 175 167 169 169 167 165 167 170 168 168 161 155 154 156 162 160 166 170 165 158 155 138 129 126 44 16 14 320 30 321 5 11 6 332 328 308 263 260 287 274 299 305 282 291 295 291 285 285 278 288 294 291 290 291 292 298 292 285 280 284
175 179 176 170 175 179 183 176 179 179 182 179 176 184 182 178 179 176 177 176 200 187 168 174 165 169 172 170 167 167 168 172 173 172 167 165 160 154 163 166 166 162 151 155 148 149 153 150 147 143 355 352 271 290 324 54 324 325 288 294 334 344 343 354 359 0 312 301 305 292 283 282 275 275 282 289 287 286 282 282 279 281 281 283 284
175 175 175 178 179 184 182 180 180 181 181 185 184 178 170 153 127 129 137 140 170 158 144 142 163 155 173 176 180 172 174 173 172 169 167 163 160 163 162 165 173 166 163 161 159 164 153 141 139 147 136 29 34 310 74 54 62 357 2 23 303 359 314 337 339 316 299 298 291 281 280 281 278 295 302 290 282 277 272 273 275 277 274 278 280
179 180 180 182 185 186 182 179 179 183 184 181 178 161 143 133 118 105 113 99 84 143 154 185 186 181 172 187 189 174 171 168 172 173 167 167 164 162 164 169 167 172 160 163 166 174 169 169 155 138 142 152 263 225 313 88 33 102 151 350 337 1 250 311 327 295 303 6 308 294 293 280 287 284 277 269 270 264 270 276 277 271 279 285 290
186 187 183 185 181 180 178 180 180 183 184 181 174 166 170 165 158 158 172 183 182 178 193 191 185 190 194 176 166 178 173 171 173 172 170 165 167 167 167 167 172 170 166 165 164 157 167 161 173 156 161 172 167 220 275 349 159 184 192 190 193 236 311 312 343 306 248 286 261 269 266 271 273 275 259 270 268 273 273 279 276 285 291 294 292
193 178 182 185 180 176 179 181 182 184 182 179 175 173 176 182 184 186 184 188 191 206 198 189 190 189 165 176 180 175 175 170 177 174 171 170 166 169 170 172 171 169 166 156 167 178 179 173 160 142 166 162 145 205 253 277 355 276 212 243 254 272 283 313 280 311 317 48 131 221 264 272 270 271 280 266 273 283 275 275 284 291 295 294 294
179 176 180 180 181 179 179 183 184 184 183 178 182 183 183 186 189 193 193 198 200 197 185 187 180 170 173 178 172 180 176 176 173 178 175 172 170 171 171 169 169 174 166 172 175 180 166 163 155 165 157 158 163 189 230 199 205 285 81 309 298 284 271 261 245 269 280 301 294 218 231 243 248 265 277 289 287 280 290 288 293 303 299 292 294
176 180 182 183 181 179 180 181 186 185 184 183 185 191 191 189 191 189 199 208 199 189 171 167 172 171 175 174 177 177 177 179 178 177 178 174 173 171 169 170 171 177 174 171 175 172 170 161 155 145 155 156 159 179 176 213 187 229 278 291 289 265 275 259 277 249 271 291 290 297 303 235 224 259 268 269 270 281 285 280 297 293 286 289 290
181 180 179 176 181 177 182 184 191 188 185 184 188 192 195 190 193 197 200 196 185 168 170 174 177 173 180 179 179 178 180 180 182 180 177 177 172 169 171 174 176 177 174 175 171 171 171 168 170 174 169 173 177 177 198 202 195 207 198 233 260 282 282 283 251 261 260 234 272 299 305 311 308 235 263 272 278 266 262 290 284 272 277 281 278
182 179 181 182 180 183 185 189 193 187 187 189 188 193 194 196 200 199 198 193 185 174 174 184 178 178 185 183 181 183 180 185 178 183 179 174 173 173 175 177 175 175 172 171 179 175 175 169 168 164 169 175 188 198 214 209 201 208 214 208 227 231 238 257 266 265 262 283 294 285 300 299 292 305 258 231 230 261 280 272 270 279 272 270 279